EW3281 Weather Reports


Display with metric or nautical units.
time (UTC)temp
F
wind
direction
speed
MPH
gust
MPH
rain 1hr
in
rain 24hr
in
rain mn
in
humidity
%
barometer
mb
20260506184514 61 261 0.0 1.0 0.00 0.00 0.00 80 1007.3
20260506184014 61 217 0.0 1.0 0.00 0.00 0.00 80 1007.4
20260506183513 61 287 0.0 0.0 0.00 0.00 0.00 80 1007.5
20260506183012 61 84 0.0 1.0 0.00 0.00 0.00 79 1007.5
20260506182511 61 81 0.0 0.0 0.00 0.00 0.00 79 1007.7
20260506182010 62 183 0.0 0.0 0.00 0.00 0.00 79 1007.9
20260506181509 62 312 0.0 0.0 0.00 0.00 0.00 78 1007.8
20260506181009 62 96 0.0 0.0 0.00 0.00 0.00 78 1007.8
20260506180036 62 87 0.0 1.0 0.00 0.00 0.00 78 1007.8
20260506175532 62 169 0.0 1.0 0.00 0.00 0.00 78 1008.0
20260506175028 63 56 0.0 0.0 0.00 0.00 0.00 77 1008.0
20260506174532 63 70 0.0 2.0 0.00 0.00 0.00 76 1008.2
20260506174027 63 70 0.0 2.0 0.00 0.00 0.00 76 1008.2
20260506173526 64 74 0.0 1.0 0.00 0.00 0.00 75 1008.2
20260506173026 64 49 0.0 1.0 0.00 0.00 0.00 75 1008.5
20260506172524 64 332 0.0 1.0 0.00 0.00 0.00 75 1008.6
20260506172025 64 338 0.0 3.0 0.00 0.00 0.00 74 1008.4
20260506171527 65 76 0.0 3.0 0.00 0.00 0.00 74 1008.3
20260506171024 65 150 0.0 1.0 0.00 0.00 0.00 74 1008.4
20260506170055 65 316 0.0 1.0 0.00 0.00 0.00 74 1008.5
20260506165551 65 183 0.0 0.0 0.00 0.00 0.00 75 1008.4
20260506165051 64 50 0.0 5.0 0.00 0.00 0.00 75 1008.6
20260506164557 64 120 0.0 5.0 0.00 0.00 0.00 75 1008.6
20260506164049 64 82 0.0 3.0 0.00 0.00 0.00 76 1008.8
20260506163549 64 36 0.0 4.0 0.00 0.00 0.00 77 1009.0
20260506163049 63 80 0.0 6.0 0.00 0.00 0.00 76 1008.8
20260506162547 64 98 0.0 3.0 0.00 0.00 0.00 75 1009.0
20260506162050 64 296 0.0 2.0 0.00 0.00 0.00 75 1009.1
20260506161546 64 79 0.0 2.0 0.00 0.00 0.00 74 1008.8
20260506161045 64 210 0.0 10.0 0.00 0.00 0.00 73 1008.9
20260506160046 65 118 0.0 4.0 0.00 0.00 0.00 73 1009.3
20260506155544 65 97 0.0 1.0 0.00 0.00 0.00 73 1009.1
20260506155047 65 114 0.0 2.0 0.00 0.00 0.00 73 1009.2
20260506154552 65 188 0.0 2.0 0.00 0.00 0.00 74 1009.3
20260506154041 65 178 0.0 6.0 0.00 0.00 0.00 74 1009.4
20260506153541 65 98 0.0 3.0 0.00 0.00 0.00 74 1009.3
20260506153041 64 11 0.0 6.0 0.00 0.00 0.00 75 1009.3
20260506152537 64 65 0.0 6.0 0.00 0.00 0.00 75 1009.5
20260506152036 64 120 0.0 1.0 0.00 0.00 0.00 76 1009.4
20260506151537 64 235 0.0 1.0 0.00 0.00 0.00 76 1009.5
20260506151033 63 90 0.0 2.0 0.00 0.00 0.00 78 1009.6
20260506150021 63 10 0.0 2.0 0.00 0.00 0.00 76 1009.7
20260506145524 63 58 0.0 1.0 0.00 0.00 0.00 77 1009.7
20260506145019 63 121 0.0 1.0 0.00 0.00 0.00 77 1009.6
20260506144517 63 98 0.0 0.0 0.00 0.00 0.00 78 1009.5
20260506144020 63 264 0.0 1.0 0.00 0.00 0.00 77 1009.5
20260506143514 63 113 0.0 1.0 0.00 0.00 0.00 78 1009.5
20260506143013 62 102 0.0 0.0 0.00 0.00 0.00 79 1009.5
20260506142513 62 65 0.0 0.0 0.00 0.00 0.00 78 1009.7
20260506142008 62 216 0.0 0.0 0.00 0.00 0.00 78 1009.7
20260506141508 62 61 0.0 0.0 0.00 0.00 0.00 79 1009.7
20260506141007 62 79 0.0 1.0 0.00 0.00 0.00 79 1009.5
20260506140057 62 82 0.0 8.0 0.00 0.00 0.00 79 1009.2
20260506135545 62 117 0.0 8.0 0.00 0.00 0.00 79 1009.4
20260506135044 62 238 0.0 3.0 0.00 0.00 0.00 79 1009.4
20260506134544 62 98 0.0 0.0 0.00 0.00 0.00 79 1009.6
20260506134041 62 91 0.0 0.0 0.00 0.00 0.00 80 1009.7
20260506133540 61 96 0.0 1.0 0.00 0.00 0.00 81 1009.8
20260506133046 61 22 0.0 1.0 0.00 0.00 0.00 81 1009.9
20260506132537 61 138 0.0 1.0 0.00 0.00 0.00 82 1010.0
20260506132039 61 21 0.0 1.0 0.00 0.00 0.00 83 1009.9
20260506131536 60 198 0.0 1.0 0.00 0.00 0.00 83 1009.9
20260506131032 60 341 0.0 1.0 0.00 0.00 0.00 84 1010.0
20260506130030 59 104 0.0 0.0 0.00 0.00 0.00 84 1010.0
20260506125527 59 65 0.0 0.0 0.00 0.00 0.00 85 1010.0
20260506125026 59 87 0.0 0.0 0.00 0.00 0.00 85 1010.0
20260506124525 59 106 0.0 6.0 0.00 0.00 0.00 85 1009.9
20260506124024 59 29 0.0 6.0 0.00 0.00 0.00 85 1010.0
20260506123522 59 114 1.0 6.0 0.00 0.00 0.00 85 1009.9
20260506123021 59 24 0.0 2.0 0.00 0.00 0.00 85 1009.8
20260506122520 59 108 0.0 3.0 0.00 0.00 0.00 86 1009.9
20260506122017 58 70 0.0 0.0 0.00 0.00 0.00 86 1009.9
20260506121516 58 302 0.0 0.0 0.00 0.00 0.00 87 1010.0
20260506121019 57 91 0.0 0.0 0.00 0.00 0.00 87 1010.1
20260506120023 57 89 0.0 0.0 0.00 0.00 0.00 87 1010.2
20260506115516 57 67 0.0 0.0 0.00 0.00 0.00 87 1010.2
20260506115012 58 83 0.0 0.0 0.00 0.00 0.00 87 1010.1
20260506114510 58 95 0.0 1.0 0.00 0.00 0.00 88 1010.3
20260506114009 57 134 0.0 1.0 0.00 0.00 0.00 89 1010.3
20260506113508 57 238 0.0 3.0 0.00 0.00 0.00 89 1010.4
20260506113009 56 293 0.0 3.0 0.00 0.00 0.00 90 1010.3
20260506112505 56 70 0.0 0.0 0.00 0.00 0.00 90 1010.4
20260506112003 56 98 0.0 1.0 0.00 0.00 0.00 90 1010.6
20260506111501 56 2 0.0 1.0 0.00 0.00 0.00 90 1010.5
20260506111101 56 33 0.0 0.0 0.00 0.00 0.00 91 1010.5
20260506110103 56 52 0.0 0.0 0.00 0.00 0.00 90 1010.5
20260506105559 56 341 0.0 0.0 0.00 0.00 0.00 90 1010.3
20260506105058 56 33 0.0 0.0 0.00 0.00 0.00 91 1010.4
20260506104559 56 91 0.0 0.0 0.00 0.00 0.00 91 1010.3
20260506104054 56 129 0.0 0.0 0.00 0.00 0.00 91 1010.1
20260506103552 0 75 0.0 0.0 0.00 0.00 0.00 1010.1
20260506103058 0 0.0 0.0 0.00 0.00 0.00 1010.1
20260506102550 0 0.0 0.0 0.00 0.00 0.00 1010.2
20260506102048 0 0.0 0.0 0.00 0.00 0.00 1010.1
20260506101551 0 0.0 0.0 0.00 0.00 0.00 1010.1
20260506101046 0 0.0 0.0 0.00 0.00 0.00 1010.1
20260506100042 0 0.0 0.0 0.00 0.00 0.00 1009.9
20260506095541 0 0.0 0.0 0.00 0.00 0.00 1009.9
20260506095043 0 0.0 0.0 0.00 0.00 0.00 1009.9
20260506094538 0 0.0 0.0 0.00 0.00 0.00 1009.8
20260506094036 0 0.0 0.0 0.00 0.00 0.00 1009.9
20260506093536 0 0.0 0.0 0.00 0.00 0.00 1009.9
20260506093034 0 0.0 0.0 0.00 0.00 0.00 1010.0
20260506092532 -90 30 0.0 0.0 0.00 0.00 0.00 91 1010.0
20260506092031 -90 30 0.0 0.0 0.00 0.00 0.00 91 1010.0
20260506091530 56 328 0.0 3.0 0.00 0.00 0.00 91 1010.1
20260506091029 56 100 0.0 3.0 0.00 0.00 0.00 91 1010.1
20260506090029 56 340 0.0 0.0 0.00 0.00 0.00 90 1010.2
20260506085529 56 108 0.0 0.0 0.00 0.00 0.00 90 1010.2
20260506085029 56 125 0.0 0.0 0.00 0.00 0.00 90 1010.2
20260506084535 56 41 0.0 0.0 0.00 0.00 0.00 90 1010.2
20260506084029 56 60 0.0 0.0 0.00 0.00 0.00 90 1010.2
20260506083529 56 115 0.0 0.0 0.00 0.00 0.00 90 1010.2
20260506083032 56 336 0.0 0.0 0.00 0.00 0.00 90 1010.2
20260506082527 56 134 0.0 0.0 0.00 0.00 0.00 90 1010.3
20260506082027 57 50 0.0 0.0 0.00 0.00 0.00 90 1010.3
20260506081528 57 59 0.0 0.0 0.00 0.00 0.00 90 1010.4
20260506081031 57 333 0.0 0.0 0.00 0.00 0.00 89 1010.3
20260506073527 56 34 0.0 0.0 0.00 0.00 0.00 90 1010.4
20260506073026 56 57 0.0 0.0 0.00 0.00 0.00 89 1010.3
20260506072525 56 130 0.0 0.0 0.00 0.00 0.00 89 1010.4
20260506072026 56 238 0.0 0.0 0.00 0.00 0.00 89 1010.3
20260506071526 56 343 0.0 1.0 0.00 0.00 0.00 89 1010.4
20260506071028 56 18 0.0 1.0 0.00 0.00 0.00 89 1010.3
20260506062025 57 58 0.0 0.0 0.00 0.00 0.00 87 1010.2
20260506061525 57 59 0.0 0.0 0.00 0.00 0.00 87 1010.3
20260506061024 57 50 0.0 0.0 0.00 0.00 0.00 87 1010.3
20260506051022 57 66 0.0 0.0 0.00 0.00 0.00 86 1010.7
20260506045025 57 340 0.0 0.0 0.00 0.00 0.00 86 1010.9
20260506044522 57 224 0.0 0.0 0.00 0.00 0.00 86 1010.9
20260506044020 57 77 0.0 0.0 0.00 0.00 0.00 86 1010.9
20260506043525 57 43 0.0 0.0 0.00 0.00 0.00 86 1010.9
20260506043021 57 158 0.0 0.0 0.00 0.00 0.00 86 1010.9
20260506042524 57 23 0.0 0.0 0.00 0.00 0.00 86 1011.0
20260506042021 57 79 0.0 0.0 0.00 0.00 0.00 86 1010.9
20260506041520 56 22 0.0 0.0 0.00 0.00 0.00 85 1010.9
20260506041019 57 120 0.0 0.0 0.00 0.00 0.00 85 1010.9
20260506040033 56 91 0.0 0.0 0.00 0.00 0.00 84 1010.9
20260506035519 57 250 0.0 0.0 0.00 0.00 0.00 84 1010.9
20260506035019 56 169 0.0 0.0 0.00 0.00 0.00 84 1010.8
20260506034520 57 69 0.0 0.0 0.00 0.00 0.00 83 1010.8
20260506034018 57 349 0.0 0.0 0.00 0.00 0.00 83 1010.7
20260506033518 57 210 0.0 0.0 0.00 0.00 0.00 83 1010.8
20260506033018 57 60 0.0 0.0 0.00 0.00 0.00 83 1010.7
20260506032517 57 187 0.0 0.0 0.00 0.00 0.00 83 1010.7
20260506032017 57 64 0.0 0.0 0.00 0.00 0.00 82 1010.6
20260506031517 57 124 0.0 0.0 0.00 0.00 0.00 82 1010.6
20260506031017 57 109 0.0 0.0 0.00 0.00 0.00 82 1010.7
20260506030016 57 70 0.0 0.0 0.00 0.00 0.00 81 1010.6
20260506025516 57 14 0.0 0.0 0.00 0.00 0.00 81 1010.5
20260506025015 57 82 0.0 0.0 0.00 0.00 0.00 81 1010.6
20260506024515 57 22 0.0 1.0 0.00 0.00 0.00 80 1010.6
20260506024019 57 99 0.0 2.0 0.00 0.00 0.00 80 1010.5
20260506023515 57 187 0.0 2.0 0.00 0.00 0.00 80 1010.6
20260506023025 57 92 0.0 1.0 0.00 0.00 0.00 79 1010.6
20260506022514 57 131 0.0 0.0 0.00 0.00 0.00 79 1010.6
20260506022016 57 62 0.0 0.0 0.00 0.00 0.00 79 1010.6
20260506021528 57 53 0.0 0.0 0.00 0.00 0.00 79 1010.5
20260506021014 57 72 0.0 2.0 0.00 0.00 0.00 78 1010.5
20260506020014 57 327 0.0 1.0 0.00 0.00 0.00 78 1010.5
20260506015515 57 63 0.0 1.0 0.00 0.00 0.00 78 1010.5
20260506015019 57 49 0.0 0.0 0.00 0.00 0.00 78 1010.5
20260506014514 57 108 0.0 1.0 0.00 0.00 0.00 79 1010.5
20260506014014 57 124 0.0 1.0 0.00 0.00 0.00 79 1010.5
20260506013514 57 257 0.0 0.0 0.00 0.00 0.00 79 1010.4
20260506013013 57 98 0.0 0.0 0.00 0.00 0.00 79 1010.5
20260506012514 57 46 0.0 0.0 0.00 0.00 0.00 79 1010.5
20260506012012 57 217 0.0 0.0 0.00 0.00 0.00 79 1010.4
20260506011512 57 108 0.0 0.0 0.00 0.00 0.00 79 1010.4
20260506011015 57 20 0.0 0.0 0.00 0.00 0.00 79 1010.4
20260506010023 57 42 0.0 0.0 0.00 0.00 0.00 80 1010.2
20260506005509 57 212 0.0 0.0 0.00 0.00 0.00 80 1010.2
20260506005011 57 63 0.0 0.0 0.00 0.00 0.00 80 1010.0
20260506004510 57 26 0.0 0.0 0.00 0.00 0.00 80 1010.0
20260506004008 57 40 0.0 0.0 0.00 0.00 0.00 80 1009.9
20260506003508 57 102 0.0 0.0 0.00 0.00 0.00 80 1009.9
20260506003007 57 344 0.0 0.0 0.00 0.00 0.00 80 1009.8
20260506002508 57 56 0.0 0.0 0.00 0.00 0.00 80 1009.8
20260506002007 57 56 0.0 0.0 0.00 0.00 0.00 80 1009.7
20260506001506 57 354 0.0 0.0 0.00 0.00 0.00 80 1009.7
20260506001006 57 159 0.0 0.0 0.00 0.00 0.00 80 1009.4
20260506000005 57 152 0.0 0.0 0.00 0.00 0.00 80 1009.3
20260505235505 57 63 0.0 1.0 0.00 0.00 0.00 80 1009.1
20260505235004 57 355 0.0 1.0 0.00 0.00 0.00 79 1009.0
20260505234508 57 226 0.0 1.0 0.00 0.00 0.00 79 1008.8
20260505234003 57 98 0.0 1.0 0.00 0.00 0.00 79 1008.7
20260505233502 57 241 0.0 0.0 0.00 0.00 0.00 78 1008.7
20260505233003 57 35 0.0 0.0 0.00 0.00 0.00 78 1008.6
20260505232501 58 41 0.0 0.0 0.00 0.00 0.00 78 1008.5
20260505232101 58 355 0.0 2.0 0.00 0.00 0.00 77 1008.4
20260505231601 58 9 0.0 2.0 0.00 0.00 0.00 77 1008.5
20260505231059 58 353 0.0 0.0 0.00 0.00 0.00 77 1008.5
20260505230700 59 337 0.0 2.0 0.00 0.00 0.00 76 1008.6
20260505225601 59 85 0.0 3.0 0.00 0.00 0.00 76 1008.6
20260505225059 59 85 0.0 3.0 0.00 0.00 0.00 75 1008.6
20260505224559 59 126 0.0 0.0 0.00 0.00 0.00 75 1008.5
20260505224059 59 245 0.0 0.0 0.00 0.00 0.00 75 1008.4
20260505223558 59 58 0.0 0.0 0.00 0.00 0.00 75 1008.4
20260505223059 59 34 0.0 0.0 0.00 0.00 0.00 75 1008.3
20260505222558 59 79 0.0 0.0 0.00 0.00 0.00 75 1008.3
20260505222058 59 98 0.0 0.0 0.00 0.00 0.00 76 1008.1
20260505221559 59 108 0.0 1.0 0.00 0.00 0.00 76 1008.2
20260505221101 59 136 0.0 1.0 0.00 0.00 0.00 75 1008.3
20260505220700 60 82 0.0 0.0 0.00 0.00 0.00 74 1008.2
20260505220056 60 334 0.0 0.0 0.00 0.00 0.00 74 1008.2
20260505215555 60 51 0.0 0.0 0.00 0.00 0.00 73 1008.1
20260505215059 61 110 0.0 1.0 0.00 0.00 0.00 73 1008.1
20260505214622 61 90 0.0 1.0 0.00 0.00 0.00 72 1008.2
20260505214054 61 74 0.0 1.0 0.00 0.00 0.00 72 1008.2
20260505213553 61 63 0.0 3.0 0.00 0.00 0.00 72 1008.1
20260505213102 62 114 0.0 3.0 0.00 0.00 0.00 71 1008.1
20260505212553 62 143 0.0 0.0 0.00 0.00 0.00 71 1008.3
20260505212053 62 98 0.0 1.0 0.00 0.00 0.00 70 1008.2
20260505211553 62 336 0.0 1.0 0.00 0.00 0.00 70 1008.3
20260505211053 63 100 0.0 7.0 0.00 0.00 0.00 69 1008.1
20260505210653 64 141 0.0 5.0 0.00 0.00 0.00 68 1008.2
20260505205558 63 75 0.0 1.0 0.00 0.00 0.00 69 1007.8
20260505205102 64 106 0.0 0.0 0.00 0.00 0.00 68 1007.8
20260505204605 64 27 0.0 0.0 0.00 0.00 0.00 69 1007.8
20260505204057 63 23 0.0 0.0 0.00 0.00 0.00 69 1007.9
20260505203557 64 357 0.0 0.0 0.00 0.00 0.00 69 1008.0
20260505203058 63 97 0.0 3.0 0.00 0.00 0.00 69 1008.0
20260505202556 63 61 0.0 3.0 0.00 0.00 0.00 69 1008.0
20260505202056 64 11 0.0 8.0 0.00 0.00 0.00 69 1008.0
20260505201557 64 132 0.0 1.0 0.00 0.00 0.00 67 1008.1
20260505201056 64 354 0.0 0.0 0.00 0.00 0.00 70 1008.1
20260505200656 64 89 0.0 1.0 0.00 0.00 0.00 67 1008.0
20260505195550 65 119 0.0 0.0 0.00 0.00 0.00 67 1007.9
20260505195050 65 95 0.0 0.0 0.00 0.00 0.00 68 1008.0
20260505194559 64 245 0.0 0.0 0.00 0.00 0.00 68 1008.0
20260505194050 64 288 0.0 0.0 0.00 0.00 0.00 68 1008.1
20260505193549 64 231 0.0 2.0 0.00 0.00 0.00 68 1008.1
20260505193052 65 333 0.0 2.0 0.00 0.00 0.00 67 1008.3
20260505192549 64 92 0.0 2.0 0.00 0.00 0.00 69 1008.1
20260505192050 65 54 0.0 2.0 0.00 0.00 0.00 67 1008.3
20260505191548 65 90 0.0 0.0 0.00 0.00 0.00 67 1008.2
20260505191048 66 62 0.0 0.0 0.00 0.00 0.00 66 1008.3
20260505190648 66 297 0.0 5.0 0.00 0.00 0.00 66 1008.1
20260505190049 66 92 0.0 5.0 0.00 0.00 0.00 68 1008.1
20260505185548 65 108 0.0 5.0 0.00 0.00 0.00 66 1008.1
20260505185049 65 83 0.0 11.0 0.00 0.00 0.00 68 1008.1